Date String (YYYY-MM-DD hh:mm:ss) UTC,Instrument flags,Ambient pressure (hPa),Sample flow (lpm),Bypass flow (lpm),Sample temperature (°C),Ambient temperature (°C),ASC tube jacket temperature (°C),LED temperature (°C),Box temperature (°C),Sample RH (%),Span deviation,Mass concentration (μg/m³),Mass concentration (μg/m³),Mass concentration (μg/m³)
DateTimeUTC,F1_M11,P_M11,Q1_M11,Q2_M11,T1_M11,T2_M11,T3_M11,T4_M11,T5_M11,U1_M11,ZSPAN_M11,X0_M11,X2_M11,X1_M11
2021-12-13 22:00:00,,0822.8,5.01,0.00,30.1,29.5,00.0,39.0,31.9,05.1,0000.0,0013.43,0004.56,0003.60
2021-12-13 22:01:00,,0822.8,4.99,0.00,30.1,29.5,00.0,39.0,31.9,05.1,0000.0,0013.65,0004.58,0003.60
2021-12-13 22:02:00,,0822.8,5.00,0.00,30.2,29.5,00.0,39.0,31.9,05.1,0000.0,0014.03,0004.53,0003.59
2021-12-13 22:03:00,,0822.8,5.01,0.00,30.2,29.6,00.0,39.0,32.0,05.1,0000.0,0014.52,0004.54,0003.59
2021-12-13 22:04:00,,0822.9,4.99,0.00,30.2,29.6,00.0,39.1,32.0,05.1,0000.0,0015.24,0004.59,0003.57
2021-12-13 22:05:00,,0822.9,5.00,0.00,30.2,29.6,00.0,39.1,32.0,05.1,0000.0,0014.68,0004.57,0003.55
2021-12-13 22:06:00,,0822.9,5.00,0.00,30.2,29.6,00.0,39.1,32.0,05.1,0000.0,0012.83,0004.53,0003.54
2021-12-13 22:07:00,,0823.0,5.01,0.00,30.3,29.6,00.0,39.1,32.0,05.1,0000.0,0012.12,0004.52,0003.53
2021-12-13 22:08:00,,0822.8,4.99,0.00,30.3,29.6,00.0,39.1,32.0,05.1,0000.0,0011.64,0004.48,0003.52
2021-12-13 22:09:00,,0822.8,5.00,0.00,30.3,29.6,00.0,39.2,32.1,05.1,0000.0,0011.25,0004.44,0003.52
2021-12-13 22:10:00,,0822.8,5.01,0.00,30.3,29.6,00.0,39.2,32.1,05.1,0000.0,0011.15,0004.42,0003.51
2021-12-13 22:11:00,,0822.8,4.99,0.00,30.3,29.6,00.0,39.2,32.1,05.1,0000.0,0011.72,0004.41,0003.50
2021-12-13 22:12:00,,0822.8,5.00,0.00,30.3,29.6,00.0,39.2,32.1,05.1,0000.0,0011.84,0004.41,0003.48
2021-12-13 22:13:00,,0822.8,5.01,0.00,30.3,29.6,00.0,39.2,32.1,05.1,0000.0,0011.65,0004.44,0003.48
2021-12-13 22:14:00,,0822.8,4.97,0.00,30.4,29.7,00.0,39.2,32.1,05.1,0000.0,0010.92,0004.39,0003.47
2021-12-13 22:15:00,,0822.7,5.00,0.00,30.4,29.7,00.0,39.2,32.1,05.1,0000.0,0010.55,0004.36,0003.48
2021-12-13 22:16:00,,0822.8,5.00,0.00,30.4,29.7,00.0,39.3,32.1,05.1,0000.0,0010.80,0004.38,0003.48
2021-12-13 22:17:00,,0823.0,4.99,0.00,30.4,29.7,00.0,39.3,32.1,05.1,0000.0,0010.64,0004.38,0003.48
2021-12-13 22:18:00,,0823.0,5.01,0.00,30.4,29.7,00.0,39.3,32.2,05.1,0000.0,0011.06,0004.39,0003.48
2021-12-13 22:19:00,,0823.0,4.99,0.00,30.4,29.7,00.0,39.3,32.1,05.1,0000.0,0011.24,0004.43,0003.48
2021-12-13 22:20:00,,0823.0,5.01,0.00,30.4,29.7,00.0,39.3,32.2,05.1,0000.0,0011.21,0004.42,0003.47
2021-12-13 22:21:00,,0822.9,5.00,0.00,30.4,29.7,00.0,39.3,32.2,05.1,0000.0,0011.62,0004.47,0003.48
2021-12-13 22:22:00,,0822.9,4.99,0.00,30.4,29.7,00.0,39.3,32.2,05.1,0000.0,0012.34,0004.49,0003.49
2021-12-13 22:23:00,,0822.9,5.00,0.00,30.4,29.7,00.0,39.3,32.2,05.1,0000.0,0012.23,0004.46,0003.50
2021-12-13 22:24:00,,0822.9,4.99,0.00,30.5,29.6,00.0,39.3,32.2,05.1,0000.0,0012.12,0004.47,0003.49
2021-12-13 22:25:00,,0822.8,5.00,0.00,30.5,29.6,00.0,39.4,32.2,05.1,0000.0,0012.37,0004.53,0003.49
2021-12-13 22:26:00,,0822.9,5.01,0.00,30.5,29.6,00.0,39.4,32.2,05.1,0000.0,0012.84,0004.57,0003.49
2021-12-13 22:27:00,,0823.0,4.99,0.00,30.5,29.6,00.0,39.4,32.2,05.1,0000.0,0013.52,0004.59,0003.48
2021-12-13 22:28:00,,0822.9,5.00,0.00,30.5,29.6,00.0,39.4,32.2,05.1,0000.0,0013.61,0004.58,0003.48
2021-12-13 22:29:00,,0823.0,5.00,0.00,30.5,29.6,00.0,39.4,32.2,05.1,0000.0,0013.80,0004.56,0003.46
2021-12-13 22:30:00,,0822.9,5.00,0.00,30.5,29.6,00.0,39.4,32.2,05.1,0000.0,0014.75,0004.56,0003.47
2021-12-13 22:31:00,,0823.0,5.00,0.00,30.5,29.7,00.0,39.4,32.2,05.1,0000.0,0014.96,0004.55,0003.47
2021-12-13 22:32:00,,0823.0,4.99,0.00,30.5,29.7,00.0,39.4,32.2,05.1,0000.0,0015.65,0004.55,0003.47
2021-12-13 22:33:00,,0823.0,5.01,0.00,30.5,29.7,00.0,39.4,32.2,05.2,0000.0,0014.97,0004.55,0003.48
2021-12-13 22:34:00,,0823.0,4.98,0.00,30.5,29.7,00.0,39.4,32.3,05.3,0000.0,0014.95,0004.65,0003.50
2021-12-13 22:35:00,,0823.0,5.02,0.00,30.5,29.7,00.0,39.4,32.2,05.4,0000.0,0015.33,0004.69,0003.52
2021-12-13 22:36:00,,0823.0,4.98,0.00,30.5,29.7,00.0,39.4,32.2,05.5,0000.0,0016.37,0004.75,0003.54
2021-12-13 22:37:00,,0823.0,5.01,0.00,30.5,29.7,00.0,39.4,32.2,05.5,0000.0,0016.85,0004.85,0003.57
2021-12-13 22:38:00,,0823.2,5.00,0.00,30.5,29.7,00.0,39.4,32.2,05.5,0000.0,0016.45,0004.92,0003.61
2021-12-13 22:39:00,,0823.2,4.99,0.00,30.5,29.7,00.0,39.4,32.2,05.6,0000.0,0018.66,0005.03,0003.63
2021-12-13 22:40:00,,0823.2,5.01,0.00,30.5,29.7,00.0,39.4,32.2,05.5,0000.0,0019.35,0005.18,0003.67
2021-12-13 22:41:00,,0823.1,4.99,0.00,30.5,29.7,00.0,39.4,32.2,05.6,0000.0,0019.01,0005.25,0003.70
2021-12-13 22:42:00,,0823.2,5.01,0.00,30.5,29.7,00.0,39.4,32.2,05.6,0000.0,0019.45,0005.42,0003.74
2021-12-13 22:43:00,,0823.3,5.01,0.00,30.5,29.7,00.0,39.5,32.3,05.6,0000.0,0019.74,0005.57,0003.78
2021-12-13 22:44:00,,0823.4,4.99,0.00,30.5,29.7,00.0,39.5,32.3,05.6,0000.0,0020.07,0005.68,0003.81
2021-12-13 22:45:00,,0823.2,5.00,0.00,30.5,29.7,00.0,39.5,32.2,05.7,0000.0,0020.21,0005.71,0003.85
2021-12-13 22:46:00,,0823.3,4.99,0.00,30.6,29.8,00.0,39.5,32.3,05.7,0000.0,0021.14,0005.80,0003.88
2021-12-13 22:47:00,,0823.4,5.01,0.00,30.6,29.8,00.0,39.5,32.3,05.7,0000.0,0021.01,0005.89,0003.90
2021-12-13 22:48:00,,0823.3,5.01,0.00,30.6,29.8,00.0,39.5,32.3,05.7,0000.0,0021.08,0005.89,0003.91
2021-12-13 22:49:00,,0823.4,4.99,0.00,30.6,29.7,00.0,39.5,32.3,05.7,0000.0,0022.37,0005.92,0003.93
2021-12-13 22:50:00,,0823.4,5.01,0.00,30.6,29.8,00.0,39.5,32.3,05.7,0000.0,0021.57,0005.95,0003.94
2021-12-13 22:51:00,,0823.4,5.00,0.00,30.6,29.8,00.0,39.5,32.3,05.7,0000.0,0020.33,0006.02,0003.95
2021-12-13 22:52:00,,0823.4,5.00,0.00,30.6,29.8,00.0,39.5,32.3,05.7,0000.0,0021.10,0006.09,0003.96
2021-12-13 22:53:00,,0823.5,4.99,0.00,30.6,29.8,00.0,39.5,32.3,05.7,0000.0,0021.87,0006.12,0003.97
2021-12-13 22:54:00,,0823.7,5.00,0.00,30.6,29.8,00.0,39.5,32.3,05.7,0000.0,0021.99,0006.18,0003.98
2021-12-13 22:55:00,,0823.6,5.01,0.00,30.6,29.8,00.0,39.5,32.3,05.7,0000.0,0022.65,0006.21,0004.00
2021-12-13 22:56:00,,0823.5,5.00,0.00,30.6,29.8,00.0,39.5,32.3,05.7,0000.0,0023.23,0006.23,0004.01
2021-12-13 22:57:00,,0823.4,4.99,0.00,30.6,29.7,00.0,39.5,32.3,05.7,0000.0,0024.18,0006.26,0004.02
2021-12-13 22:58:00,,0823.5,4.99,0.00,30.6,29.7,00.0,39.5,32.3,05.8,0000.0,0024.46,0006.24,0004.01
2021-12-13 22:59:00,,0823.7,5.00,0.00,30.6,29.7,00.0,39.5,32.3,05.9,0000.0,0025.62,0006.22,0004.03
